HST 1 20580U 90037B 26257.17378260 .00005382 00000+0 16369-3 0 9995 2 20580 28.4732 191.9585 0001881 59.3129 300.7652 15.31641591802221 POLAR 1 23802U 96013A 26255.84494893 .00000107 00000+0 00000+0 0 9999 2 23802 79.9841 225.9984 6559864 206.0744 95.9850 1.29845769145995 SWAS 1 25560U 98071A 26256.72534397 .00003144 00000+0 19899-3 0 9994 2 25560 69.8981 359.1127 0003175 141.5168 218.6224 15.10089869510638 CXO 1 25867U 99040B 26259.29000158 .00000789 00000+0 00000+0 0 9991 2 25867 57.4112 114.2820 7693035 309.4077 0.3912 0.37803042 17663 XMM-NEWTON 1 25989U 99066A 26259.10482037 .00000073 00000+0 00000+0 0 9990 2 25989 64.0056 281.8070 4648831 63.2758 0.1066 0.50126544 23462 TERRA 1 25994U 99068A 26257.18283089 .00000235 00000+0 56656-4 0 9993 2 25994 97.9370 303.1640 0001408 345.5900 91.7686 14.61159770422604 TIMED 1 26998U 01055B 26256.58549652 .00000923 00000+0 86983-4 0 9991 2 26998 74.0668 57.0036 0001905 235.9248 124.1756 14.95453262344037 CORIOLIS 1 27640U 03001A 26256.98235762 .00000079 00000+0 57939-4 0 9998 2 27640 98.7168 262.5273 0013267 321.1013 38.9208 14.19966284226827 SORCE 1 27651U 03004A 26257.05557738 .00002155 00000+0 16313-3 0 9999 2 27651 39.9899 114.4845 0018185 326.0452 33.9177 15.04106134285282 MOST 1 27843U 03031D 26256.62910784 .00000034 00000+0 35562-4 0 9990 2 27843 98.7082 263.1343 0009884 3.9262 356.1991 14.21337613203272 SCISAT 1 1 27858U 03036A 26256.68669708 .00000451 00000+0 62070-4 0 9991 2 27858 73.9325 355.4901 0006622 29.2562 330.8984 14.81537105244550 SWIFT 1 28485U 04047A 26257.20538002 .00141533 00000+0 68693-3 0 9995 2 28485 20.5506 213.1233 0002476 196.8100 163.2267 15.80652070200908 HINODE (SOLAR-B) 1 29479U 06041A 26256.75374724 .00000408 00000+0 78329-4 0 9996 2 29479 98.0551 271.6063 0017650 11.6989 348.4623 14.68719942 67878 SHIJIAN-6 02A (SJ-6 02A) 1 29505U 06046A 26257.18229613 .00004935 00000+0 24753-3 0 9995 2 29505 97.6282 298.9366 0002999 161.8658 198.2683 15.17798220 85769 SHIJIAN-6 02B (SJ-6 02B) 1 29506U 06046B 26257.18270566 .00000190 00000+0 19388-4 0 9997 2 29506 97.6982 285.6335 0016052 128.1185 232.1489 15.01477102 84095 FGRST (GLAST) 1 33053U 08029A 26256.80901521 .00002748 00000+0 95691-4 0 9994 2 33053 25.5828 308.9478 0007502 293.9389 66.0363 15.24345766 9222 SDO 1 36395U 10005A 26256.49629838 -.00000070 00000+0 00000+0 0 9998 2 36395 34.8336 84.9977 0001657 73.0726 271.4630 1.00274999 60946 CRYOSAT 2 1 36508U 10013A 26257.12631804 .00000059 00000+0 13905-4 0 9999 2 36508 92.0278 298.8999 0002374 84.6745 275.4733 14.51904518870987 X-SAT 1 37389U 11015C 26257.17513802 .00000240 00000+0 11943-3 0 9993 2 37389 98.3622 230.0049 0015305 81.6780 278.6135 14.25228678800357 GCOM-W1 (SHIZUKU) 1 38337U 12025A 26256.81458986 .00000329 00000+0 83136-4 0 9992 2 38337 98.2065 196.0411 0001488 86.7656 294.1140 14.57133316761949 NUSTAR 1 38358U 12031A 26257.25003471 .00004731 00000+0 23386-3 0 9997 2 38358 6.0273 85.6778 0008072 344.6321 29.2996 15.09531820 1303 NEOSSAT 1 39089U 13009D 26256.91957929 .00000089 00000+0 45395-4 0 9990 2 39089 98.4226 74.8730 0010719 348.3156 11.7780 14.35852909709476 BRITE-AUSTRIA 1 39091U 13009F 26256.94360078 .00000103 00000+0 49665-4 0 9990 2 39091 98.4047 74.2151 0009769 341.8484 18.2353 14.36571244709790 IRIS 1 39197U 13033A 26256.51187639 .00000721 00000+0 88412-4 0 9996 2 39197 97.9281 95.5077 0025199 32.6978 327.5791 14.86034371713496 HISAKI (SPRINT-A) 1 39253U 13049A 26257.02261135 .00000115 00000+0 70949-4 0 9990 2 39253 29.7187 128.3607 0136466 16.9749 343.5331 13.55550607643481 CASSIOPE 1 39265U 13055A 26257.14277950 .00039928 -56355-6 39751-3 0 9996 2 39265 80.9128 318.1857 0269823 121.0978 241.7038 15.31501726681254 STSAT-3 1 39422U 13066G 26257.19221728 .00002592 00000+0 19604-3 0 9990 2 39422 97.6320 225.7033 0010887 92.2375 268.0097 15.03177879697577 SWARM B 1 39451U 13067A 26257.15419829 .00002584 00000+0 90427-4 0 9994 2 39451 87.7438 315.3033 0003432 89.7301 270.4342 15.29036090696838 SWARM A 1 39452U 13067B 26257.14586463 .00008760 00000+0 15161-3 0 9996 2 39452 87.3358 23.1874 0002364 100.2022 259.9505 15.50749300720037 SWARM C 1 39453U 13067C 26257.14575359 .00008761 00000+0 15162-3 0 9991 2 39453 87.3362 21.7705 0002371 99.9630 260.1899 15.50748419719990 BRITE-CA1 (TORONTO) 1 40020U 14033L 26257.17678925 .00000485 00000+0 80479-4 0 9992 2 40020 97.9856 24.5251 0078192 353.0456 6.9660 14.72812652655319 OCO 2 1 40059U 14035A 26257.15063655 .00000284 00000+0 73010-4 0 9992 2 40059 98.2065 197.1060 0001655 79.1573 280.9812 14.57089267649001 BRITE-PL2 (HEWELIUSZ) 1 40119U 14049B 26256.26935807 .00001787 00000+0 16927-3 0 9994 2 40119 97.9166 8.9961 0014116 171.3518 188.7948 14.94852845654603 MMS 1 1 40482U 15011A 26257.25003471 -.00001834 00000+0 00000+0 0 9995 2 40482 72.9535 347.7730 8258680 169.4310 23.6598 0.28275819 1414 MMS 2 1 40483U 15011B 26257.25003471 -.00001835 00000+0 00000+0 0 9997 2 40483 72.9580 347.7719 8261520 169.4323 23.6385 0.28275728 1416 MMS 3 1 40484U 15011C 26257.25003471 -.00001835 00000+0 00000+0 0 9998 2 40484 72.9574 347.7839 8259898 169.4410 23.6121 0.28275525 1418 MMS 4 1 40485U 15011D 26257.25003471 -.00001835 00000+0 00000+0 0 9999 2 40485 72.9512 347.7679 8259970 169.4509 23.6080 0.28275518 1419 ASTROSAT 1 40930U 15052A 26257.15740414 .00001418 00000+0 90447-4 0 9998 2 40930 5.9962 234.8785 0008176 228.5463 131.3962 14.82640824593054 DAMPE 1 41173U 15078A 26257.19384527 .00001021 00000+0 36635-4 0 9998 2 41173 97.4591 263.1288 0013395 115.5336 244.7292 15.30975502598164 PISAT 1 41784U 16059B 26256.96214645 .00000699 00000+0 12639-3 0 9990 2 41784 97.8245 253.6347 0027503 282.7355 77.0777 14.69123524532776 HXMT (HUIYAN) 1 42758U 17034A 26256.91648345 .00003790 00000+0 18635-3 0 9996 2 42758 43.0149 48.7208 0031719 345.8627 14.1331 15.19124112511157 FLYING LAPTOP 1 42831U 17042G 26257.22570920 .00001566 00000+0 12501-3 0 9990 2 42831 97.5005 49.5690 0016382 176.4638 183.6705 15.01586829499810 ZHANGHENG 1-01 (CSES-1) 1 43194U 18015C 26257.22560000 .00005622 00000+0 25919-3 0 9996 2 43194 97.6959 64.7019 0013614 332.1143 27.9360 15.20609656478171 SALSAT 1 46495U 20068K 26256.61209448 .00006052 00000+0 20532-3 0 9996 2 46495 97.8881 265.1542 0009290 3.3410 356.7889 15.30904277328880 IXPE 1 49954U 21121A 26257.25003471 .00008179 00000+0 42154-3 0 9995 2 49954 0.2309 3.6450 0007381 348.4421 15.8651 15.10962648 5733 SMILE 1 69123U 26109A 26253.91179029 .00000505 00000+0 00000+0 0 9993 2 69123 70.0136 206.2630 8182473 285.8392 5.3268 0.47510467 355